| time (UTC) | temp F | wind direction | speed knots | gust knots | rain 1hr in | rain 24hr in | rain mn in | humidity % | barometer mb |
| 20260503055051 | 57 | 178 | 4.3 | 10.4 | 0.00 | 0.00 | 0.00 | 81 | 1011.9 |
| 20260503052053 | 57 | 179 | 4.3 | 9.6 | 0.00 | 0.00 | 0.00 | 84 | 1012.2 |
| 20260503051054 | 57 | 170 | 3.5 | 7.8 | 0.00 | 0.00 | 0.00 | 84 | 1012.2 |
| 20260503050053 | 57 | 157 | 3.5 | 6.1 | 0.00 | 0.00 | 0.00 | 83 | 1012.1 |
| 20260503045055 | 57 | 157 | 3.5 | 6.1 | 0.00 | 0.00 | 0.00 | 83 | 1012.1 |
| 20260503043054 | 57 | 165 | 4.3 | 7.0 | 0.00 | 0.00 | 0.00 | 82 | 1012.2 |
| 20260503042053 | 57 | 168 | 3.5 | 7.0 | 0.00 | 0.00 | 0.00 | 81 | 1012.2 |
| 20260503041051 | 58 | 180 | 3.5 | 5.2 | 0.00 | 0.00 | 0.00 | 80 | 1012.3 |
| 20260503040052 | 57 | 178 | 3.5 | 7.0 | 0.00 | 0.01 | 0.00 | 81 | 1012.4 |
| 20260503035054 | 57 | 174 | 3.5 | 6.1 | 0.00 | 0.01 | 0.00 | 81 | 1012.4 |
| 20260503034055 | 57 | 189 | 2.6 | 4.3 | 0.00 | 0.01 | 0.00 | 81 | 1012.5 |
| 20260503033054 | 57 | 179 | 2.6 | 4.3 | 0.00 | 0.01 | 0.00 | 81 | 1012.5 |
| 20260503031056 | 58 | 186 | 2.6 | 4.3 | 0.00 | 0.01 | 0.00 | 81 | 1012.5 |
| 20260503030055 | 57 | 176 | 2.6 | 4.3 | 0.00 | 0.01 | 0.00 | 82 | 1012.5 |
| 20260503025056 | 57 | 175 | 2.6 | 4.3 | 0.00 | 0.01 | 0.00 | 83 | 1012.6 |
| 20260503024056 | 57 | 166 | 3.5 | 5.2 | 0.00 | 0.01 | 0.00 | 83 | 1012.6 |
| 20260503023051 | 57 | 184 | 3.5 | 6.1 | 0.00 | 0.01 | 0.00 | 85 | 1012.8 |
| 20260503022054 | 57 | 146 | 3.5 | 5.2 | 0.00 | 0.01 | 0.00 | 85 | 1012.8 |
| 20260503021057 | 56 | 135 | 3.5 | 5.2 | 0.00 | 0.01 | 0.00 | 86 | 1012.9 |
| 20260503020054 | 56 | 122 | 3.5 | 7.0 | 0.00 | 0.01 | 0.00 | 87 | 1012.9 |
| 20260503015056 | 56 | 133 | 3.5 | 6.1 | 0.00 | 0.01 | 0.00 | 85 | 1012.8 |
| 20260503013058 | 58 | 220 | 2.6 | 4.3 | 0.00 | 0.01 | 0.00 | 81 | 1013.0 |
| 20260503012055 | 58 | 210 | 2.6 | 5.2 | 0.00 | 0.01 | 0.00 | 81 | 1013.2 |
| 20260503011057 | 58 | 198 | 3.5 | 5.2 | 0.00 | 0.01 | 0.00 | 81 | 1013.3 |
| 20260503003058 | 59 | 217 | 2.6 | 5.2 | 0.00 | 0.01 | 0.00 | 79 | 1013.4 |
| 20260503002058 | 60 | 215 | 3.5 | 5.2 | 0.00 | 0.01 | 0.00 | 79 | 1013.4 |
| 20260503001056 | 60 | 211 | 3.5 | 6.1 | 0.00 | 0.01 | 0.00 | 79 | 1013.5 |
| 20260503000104 | 60 | 206 | 4.3 | 7.8 | 0.00 | 0.01 | 0.00 | 78 | 1013.5 |
| 20260502235111 | 60 | 207 | 3.5 | 6.1 | 0.00 | 0.01 | 0.00 | 78 | 1013.6 |
| 20260502234106 | 60 | 205 | 4.3 | 7.0 | 0.00 | 0.01 | 0.00 | 77 | 1013.7 |
| 20260502232107 | 60 | 184 | 3.5 | 6.1 | 0.00 | 0.01 | 0.00 | 76 | 1013.6 |
| 20260502231104 | 60 | 185 | 3.5 | 7.8 | 0.00 | 0.01 | 0.00 | 76 | 1013.7 |
| 20260502223106 | 61 | 178 | 3.5 | 7.8 | 0.00 | 0.01 | 0.00 | 76 | 1013.7 |
| 20260502222108 | 61 | 180 | 3.5 | 7.0 | 0.00 | 0.01 | 0.00 | 76 | 1013.7 |
| 20260502221108 | 61 | 185 | 2.6 | 7.0 | 0.00 | 0.01 | 0.00 | 75 | 1013.7 |
| 20260502215110 | 61 | 174 | 4.3 | 9.6 | 0.00 | 0.01 | 0.01 | 76 | 1013.8 |
| 20260502213113 | 62 | 174 | 5.2 | 7.8 | 0.00 | 0.01 | 0.01 | 74 | 1013.8 |
| 20260502211107 | 63 | 179 | 5.2 | 8.7 | 0.00 | 0.01 | 0.01 | 72 | 1013.8 |
| 20260502210111 | 63 | 182 | 5.2 | 9.6 | 0.00 | 0.01 | 0.01 | 72 | 1013.8 |
| 20260502205112 | 63 | 185 | 5.2 | 9.6 | 0.00 | 0.01 | 0.01 | 71 | 1013.8 |
| 20260502204110 | 63 | 183 | 4.3 | 8.7 | 0.00 | 0.01 | 0.01 | 71 | 1013.9 |
| 20260502202118 | 63 | 332 | 3.5 | 7.8 | 0.00 | 0.01 | 0.01 | 71 | 1013.9 |
| 20260502201114 | 63 | 180 | 5.2 | 11.3 | 0.00 | 0.01 | 0.01 | 71 | 1014.0 |
| 20260502200114 | 63 | 176 | 5.2 | 9.6 | 0.00 | 0.01 | 0.01 | 72 | 1014.1 |
| 20260502195103 | 62 | 170 | 6.1 | 10.4 | 0.00 | 0.01 | 0.01 | 73 | 1014.1 |
| 20260502193110 | 61 | 151 | 5.2 | 7.8 | 0.00 | 0.01 | 0.01 | 78 | 1014.3 |
| 20260502192109 | 61 | 149 | 3.5 | 7.0 | 0.00 | 0.01 | 0.01 | 78 | 1014.3 |
| 20260502191114 | 63 | 132 | 2.6 | 3.5 | 0.00 | 0.01 | 0.01 | 76 | 1014.2 |
| 20260502190108 | 63 | 138 | 1.7 | 3.5 | 0.00 | 0.01 | 0.01 | 76 | 1014.3 |
| 20260502185110 | 64 | 126 | 1.7 | 3.5 | 0.00 | 0.01 | 0.01 | 75 | 1014.3 |
| 20260502184106 | 64 | 152 | 2.6 | 5.2 | 0.00 | 0.01 | 0.01 | 74 | 1014.3 |
| 20260502183111 | 65 | 155 | 4.3 | 7.0 | 0.00 | 0.01 | 0.01 | 73 | 1014.2 |
| 20260502182106 | 66 | 152 | 5.2 | 8.7 | 0.00 | 0.01 | 0.01 | 70 | 1014.1 |
| 20260502180112 | 68 | 196 | 5.2 | 8.7 | 0.00 | 0.01 | 0.01 | 66 | 1013.9 |
| 20260502170105 | 71 | 264 | 3.5 | 5.2 | 0.00 | 0.01 | 0.01 | 59 | 1013.8 |
| 20260502163107 | 71 | 271 | 3.5 | 7.0 | 0.00 | 0.01 | 0.01 | 56 | 1014.2 |
| 20260502162104 | 71 | 217 | 3.5 | 8.7 | 0.00 | 0.01 | 0.01 | 57 | 1014.4 |
| 20260502161107 | 72 | 193 | 3.5 | 7.8 | 0.00 | 0.01 | 0.01 | 58 | 1014.4 |
| 20260502160106 | 73 | 294 | 1.7 | 5.2 | 0.00 | 0.01 | 0.01 | 54 | 1014.4 |
| 20260502152107 | 73 | 220 | 2.6 | 6.1 | 0.00 | 0.01 | 0.01 | 57 | 1014.9 |
| 20260502151110 | 73 | 263 | 4.3 | 8.7 | 0.00 | 0.01 | 0.01 | 56 | 1015.0 |
| 20260502123058 | 71 | 277 | 7.0 | 10.4 | 0.00 | 0.01 | 0.01 | 60 | 1017.6 |
| 20260502122059 | 70 | 271 | 7.8 | 12.2 | 0.00 | 0.01 | 0.01 | 61 | 1017.7 |
| 20260502121059 | 69 | 279 | 7.8 | 11.3 | 0.00 | 0.01 | 0.01 | 61 | 1017.9 |
| 20260502115041 | 70 | 247 | 7.8 | 13.9 | 0.00 | 0.01 | 0.01 | 62 | 1018.1 |
| 20260502114057 | 70 | 247 | 7.8 | 13.9 | 0.00 | 0.01 | 0.01 | 60 | 1018.2 |
| 20260502113046 | 69 | 240 | 7.0 | 12.2 | 0.00 | 0.01 | 0.01 | 61 | 1018.3 |
| 20260502112053 | 69 | 236 | 7.0 | 12.2 | 0.00 | 0.01 | 0.01 | 62 | 1018.4 |
| 20260502111058 | 70 | 95 | 6.1 | 10.4 | 0.00 | 0.01 | 0.01 | 63 | 1018.5 |
| 20260502110056 | 70 | 205 | 5.2 | 10.4 | 0.00 | 0.01 | 0.01 | 65 | 1018.6 |
| 20260502105022 | 69 | 226 | 5.2 | 11.3 | 0.00 | 0.01 | 0.01 | 67 | 1018.7 |
| 20260502104056 | 68 | 226 | 5.2 | 11.3 | 0.00 | 0.01 | 0.01 | 67 | 1018.8 |
| 20260502103054 | 68 | 239 | 4.3 | 10.4 | 0.00 | 0.01 | 0.01 | 66 | 1018.8 |
| 20260502102055 | 68 | 234 | 6.1 | 11.3 | 0.00 | 0.01 | 0.01 | 66 | 1018.9 |
| 20260502101034 | 68 | 222 | 7.0 | 13.0 | 0.00 | 0.01 | 0.01 | 65 | 1019.1 |
| 20260502091057 | 67 | 194 | 4.3 | 10.4 | 0.00 | 0.01 | 0.01 | 70 | 1019.3 |
| 20260502071055 | 59 | 206 | 2.6 | 5.2 | 0.00 | 0.01 | 0.01 | 75 | 1020.2 |
| 20260502070050 | 58 | 195 | 1.7 | 3.5 | 0.00 | 0.01 | 0.01 | 76 | 1020.3 |
| 20260502064054 | 57 | 187 | 4.3 | 7.8 | 0.00 | 0.01 | 0.01 | 78 | 1020.5 |
| 20260502063054 | 57 | 183 | 4.3 | 8.7 | 0.00 | 0.01 | 0.01 | 79 | 1020.4 |
| 20260502061055 | 55 | 168 | 3.5 | 6.1 | 0.00 | 0.01 | 0.01 | 80 | 1020.5 |
| 20260502060056 | 54 | 159 | 3.5 | 6.1 | 0.00 | 0.01 | 0.01 | 81 | 1020.6 |